Regional Weather Roundup
Issued by NWS Charleston, SC

Current Version | Previous Version | Graphics & Text | Print | Product List | Glossary On
Versions: 1 2 3 4 5 6 7 8 9 10 11 12 13 14 15 16 17 18 19 20 21 22 23 24 25 26 27 28 29 30 31 32 33 34 35 36 37 38 39 40 41 42 43 44 45 46 47 48 49 50
000
ASUS42 KCHS 271926
RWRCHS

REGIONAL WEATHER ROUNDUP
NATIONAL WEATHER SERVICE CHARLESTON SC
200 PM EST FRI FEB 27 2015

NOTE: "FAIR" INDICATES FEW OR NO CLOUDS BELOW 12,000 FEET WITH NO
SIGNIFICANT WEATHER AND/OR OBSTRUCTIONS TO VISIBILITY.

NOT ALL STATIONS ARE QUALITY CONTROLLED BY THE NATIONAL
WEATHER SERVICE. USE DATA WITH CAUTION...ESPECIALLY
DEWPOINT OBSERVATIONS.

SCZ027-030-031-034>040-042>050-272000-
...SOUTHEAST SOUTH CAROLINA...

CITY           SKY/WX    TMP DP  RH WIND       PRES   REMARKS
N CHARLESTON   PTSUNNY   52  32  46 N8        30.35F
WATERFRONT PRK   N/A     48 N/A N/A E12         N/A
MOUNT PLEASANT FAIR      50  36  57 E6        30.36S
PINOPOLIS        N/A     48  37  66 VRB3      30.28F
MONCKS CORNER  FAIR      52  32  46 N3        30.35F
SUMMERVILLE    FAIR      52  34  50 NE6       30.36F
BEAUFORT MCAS  NOT AVBL
BEAUFORT ARPT  FAIR      50  36  57 E9        30.35S
HILTON HEAD IS PTSUNNY   48  37  66 NE7       30.36F
WALTERBORO     MOCLDY    52  36  54 N8        30.35F
ALLENDALE      FAIR      54  34  47 CALM      30.34F

...SOUTHERN MIDLANDS AND PEE DEE...

CITY           SKY/WX    TMP DP  RH WIND       PRES   REMARKS
GEORGETOWN     NOT AVBL
KINGSTREE      NOT AVBL
ORANGEBURG     PTSUNNY   51  32  48 VRB3      30.35F
BARNWELL       FAIR      54  34  47 CALM      30.35F
AIKEN          FAIR      54  32  43 S3        30.36F
MANNING        MOCLDY    54  27  35 N6        30.36S
COLUMBIA       MOSUNNY   53  33  46 W5        30.34F
SUMTER         PTSUNNY   52  32  46 VRB5      30.33F
FLORENCE       MOSUNNY   53  29  39 VRB3      30.36F
MYRTLE BEACH   SUNNY     48  34  57 VRB6      30.38F
N MYRTLE BEACH PTSUNNY   51  30  44 N8        30.35F

$$

GAZ063-065-086>088-099>101-113>116-118-119-134>141-150-272000-
...SOUTHEAST GEORGIA...

CITY           SKY/WX    TMP DP  RH WIND       PRES   REMARKS
SAVANNAH ARPT  CLOUDY    53  32  44 NE8       30.35F
HUNTER AAF     CLOUDY    51  33  49 NE6       30.33F
FORT STEWART   CLOUDY    52  34  49 NE9       30.31F
STATESBORO     PTSUNNY   52  37  55 CALM      30.33F
SYLVANIA       PTCLDY    52  39  60 E5        30.34F
CLAXTON        FAIR      54  37  54 CALM      30.34S

...CSRA...CENTRAL AND FAR SOUTHEAST GEORGIA...

CITY           SKY/WX    TMP DP  RH WIND       PRES   REMARKS
THOMSON        SUNNY     56  40  55 CALM      30.36F
AUGUSTA-BUSH   SUNNY     55  32  41 N7        30.34F
AUGUSTA-DANIEL MOSUNNY   55  33  43 SE5       30.33F
SWAINSBORO     MOCLDY    55  28  35 E7        30.33F
VIDALIA        PTSUNNY   54  37  54 E5        30.33F
EASTMAN        MOCLDY    54  39  57 NE5       30.35F
HAZLEHURST     FAIR      54  40  57 E6        30.31F
ALMA           CLOUDY    52  37  56 NE7       30.32F
WAYCROSS       CLOUDY    55  38  53 E7        30.32F
JESUP          FAIR      54  37  54 E6        30.33F
BAXLEY         FAIR      54  37  54 E9        30.32S
BRUNSWICK      CLOUDY    52  32  46 N12G22    30.34S
SAINT SIMONS   CLOUDY    49  33  54 NE17      30.32F

$$

SCZ027-028-034-036>038-045-046-048>050-GAZ119-141-272000-
...LAKE AND SUPPLEMENTAL COASTAL OBSERVATIONS...

STATION/POSITION TIME  TEMP    WIND        PRES    WAVE   SWELL
                       AIR SEA DIR/SP/G            HT/PER HT/PER/DIR
                 (UTC) (F)     (DEG/KT/KT) (MB)    (FT/S) (FT/S/D)
UPR LAKE MARION  NOT AVBL
WINYAH BAY       1800   44     100/  7     1028.0S
LAKE MURRAY      1800   48     190/  4/  5 1027.8F
ACE BASIN NERRS  1800   50      80/  4     1028.0F
FORT PULASKI     1900   46 49   60/ 13/ 15 1028.3F
SAPELO ISLAND    1900   49      40/ 14     1027.0F

$$

ANZ835-935-AMZ111-154-330-350-352-354-370-450-454-472-272000-
...C-MAN AND BUOY OBSERVATIONS...

STATION/POSITION TIME  TEMP    WIND        PRES    WAVE   SWELL
                       AIR SEA DIR/SP/G            HT/PER HT/PER/DIR
                 (UTC) (F)     (DEG/KT/KT) (MB)    (FT/S) (FT/S/D)
BUOY 41004       1850   49 66   20/ 17/ 21 1026.9F   5/ 8   3/ 8
BUOY 41008       1850   46 52   20/ 19/ 23 1026.5F   4/ 5   2/ 80/11
FOLLY BEACH CMAN 1900   45      70/ 14/ 15 1028.6F
CAPERS NEARSHORE NOT AVBL
FRIPP NEARSHORE  1800   44      50/ 12/ 14 1027.3F


STATION/POSITION TIME  TEMP    WIND        PRES    WAVE   SWELL
                       AIR SEA DIR/SP/G            HT/PER HT/PER/DIR
                 (UTC) (F)     (DEG/KT/KT) (MB)    (FT/S) (FT/S/D)
5E ST. MARYS GA  1821      53                N/A     5/ 5
FRYING PAN BUOY  1850   45 61   30/ 16/ 19 1028.1F   5/ 5   3/160/ 8
BUOY 41025       NOT AVBL
CAPE LOOKOUT NC  1900   44      20/ 12/ 14 1028.0R
BUOY 41002       1850   63 70  340/ 16/ 19 1022.8F   8/11   7/ 10/11
BUOY 41010       1820   66 73   50/ 14/ 17 1021.7F
ST AUGUSTINE FL  1900   50      10/ 23/ 27 1025.7F


$$



USA.gov is the U.S. government's official web portal to all federal, state and local government web resources and services.